Location: Zagreb
(45.8000°N, 16.0000°E)
Time: 20:32:11
(UTC+01:00)

deb Explorer IX - Pass Details

Date: 04 October 2020
Orbit: 537 x 1106 km, 38.8° (Epoch: 30 October)

Event Time Altitude Azimuth Distance (km) Brightness Sun altitude
Rises 20:06:58 0° 266° (W) 3,036 ? -17.7°
Reaches altitude 10° 20:09:55 10° 251° (WSW) 2,022 ? -18.2°
Maximum altitude 20:13:24 21° 202° (SSW) 1,335 ? -18.8°
Enters shadow 20:15:08 17° 170° (S) 1,485 ? -19.1°
Drops below altitude 10° 20:16:37 10° 152° (SSE) 1,847 - -19.3°
Sets 20:19:10 0° 136° (SE) 2,699 - -19.8°
